User: anonymous   Login
Location: Unspecified
(0.0000°N, 0.0000°E)
Time: 10:14:58
(UTC+00:00)
Language:

deb DMSP - Orbit

View from above orbital plane
View from above orbital plane
View from above satellite
View from above satellite

Ground track
Ground track

The orbit data is extracted from the following two-line orbital elements,

1 24756U 97012B   18113.93131604 +.00011734 +00000-0 +61598-3 0  9992
2 24756 098.8191 276.2510 0005597 083.0629 068.0526 15.15918337112878
Epoch (UTC): 23 April 2018 22:21:05
Eccentricity: 0.0005597
inclination: 98.8191°
perigee height: 514 km
apogee height: 522 km
right ascension of ascending node: 276.2510°
argument of perigee: 83.0629°
revolutions per day: 15.15918337
mean anomaly at epoch: 68.0526°
orbit number at epoch: 11287

The dashed part of the orbit path shows where the satellite is in the earth's shadow,  

DLR